Regional Weather Roundup
Issued by NWS Little Rock, AR

Home | Current Version | Previous Version | Graphics & Text | Print | Product List | Glossary On
Versions: 1 2 3 4 5 6 7 8 9 10 11 12 13 14 15 16 17 18 19 20 21 22 23 24 25 26 27 28 29 30 31 32
000
ASUS44 KLZK 251405
RWRLZK

WEATHER ROUNDUP FOR ARKANSAS
NATIONAL WEATHER SERVICE LITTLE ROCK AR
900 AM CDT SUN SEP 25 2016

NOTE: "FAIR" INDICATES FEW OR NO CLOUDS BELOW 12,000 FEET WITH NO
SIGNIFICANT WEATHER AND/OR OBSTRUCTIONS TO VISIBILITY.

ARZ001-003-010-029-251500-
NORTHWEST ARKANSAS

CITY           SKY/WX    TMP DP  RH WIND       PRES   REMARKS
FAYETTEVILLE   MOSUNNY   69  67  93 CALM      30.11R
FORT SMITH     MOSUNNY   77  69  76 NE3       30.07R
HARRISON       SUNNY     72  69  90 CALM      30.11S
BENTONVILLE    MOSUNNY   75  64  69 CALM      30.11S
ROGERS         MOSUNNY   73  69  87 SE3       30.11S
SILOAM SPGS    MOSUNNY   72  61  68 CALM        N/A
HIGHFILL       PTSUNNY   72  69  90 CALM      30.10S
SPRINGDALE     SUNNY     73  68  83 SE5       30.12S
$$

ARZ004-005-016-251500-
NORTH CENTRAL ARKANSAS

CITY           SKY/WX    TMP DP  RH WIND       PRES   REMARKS
BATESVILLE     SUNNY     73  70  88 W3        30.08R
FLIPPIN        MOSUNNY   72  66  83 CALM      30.07S
MTN HOME       MOSUNNY   74  70  87 CALM      30.09S
$$

ARZ040-041-251500-
WEST CENTRAL ARKANSAS

CITY           SKY/WX    TMP DP  RH WIND       PRES   REMARKS
MENA           CLOUDY    73  72  94 CALM      30.09S
MOUNT IDA      MOSUNNY   73  70  90 CALM      30.06R
$$

ARZ009-017-025-026-028-251500-
NORTHEAST ARKANSAS

CITY           SKY/WX    TMP DP  RH WIND       PRES   REMARKS
CORNING          N/A     77  72  83 CALM      30.07S
JONESBORO      SUNNY     78  69  73 E3        30.05F
NEWPORT        SUNNY     77  72  84 NW5       30.07R
WALNUT RIDGE   SUNNY     77  70  78 CALM      30.06S
BLYTHEVILLE    SUNNY     80  67  64 S6        30.07S
$$

ARZ022-023-033-042-044-251500-
CENTRAL ARKANSAS

CITY           SKY/WX    TMP DP  RH WIND       PRES   REMARKS
LITTLE ROCK    CLOUDY    81  72  74 CALM      30.06S HX  85
N LITTLE ROCK    N/A     79  73  80 CALM      30.04R
JACKSONVILLE   CLOUDY    79  71  77 W5        30.06R
SEARCY         SUNNY     78  73  84 NW3       30.08R
HOT SPRINGS    SUNNY     76  71  85 CALM      30.07S
RUSSELLVILLE   SUNNY     75  70  84 CALM      30.07S
$$

ARZ036-251500-
EAST ARKANSAS

CITY           SKY/WX    TMP DP  RH WIND       PRES   REMARKS
WEST MEMPHIS   CLOUDY    82  65  56 SE8       30.04S
$$

ARZ050-053-066-070-073-251500-
SOUTHWEST ARKANSAS

CITY           SKY/WX    TMP DP  RH WIND       PRES   REMARKS
ARKADELPHIA    FAIR      74  72  93 CALM      30.07S
TEXARKANA      CLOUDY    77  72  84 SW3       30.06R
EL DORADO      SUNNY     77  73  87 CALM      30.06S
DE QUEEN       CLOUDY    73  73 100 CALM      30.04S
$$

ARZ056-057-069-251500-
SOUTHEAST ARKANSAS

CITY           SKY/WX    TMP DP  RH WIND       PRES   REMARKS
PINE BLUFF     SUNNY     79  72  79 CALM      30.06S
STUTTGART      MOSUNNY   79  70  73 W6        30.07R
MONTICELLO     SUNNY     79  71  76 W6        30.06S

$$






USA.gov is the U.S. government's official web portal to all federal, state and local government web resources and services.